Regional Weather Roundup
Issued by NWS

Home | Current Version | Previous Version | Graphics & Text | Print | Product List | Glossary On
Versions: 1 2 3 4 5 6 7 8 9 10 11 12 13 14 15 16 17 18 19 20 21 22 23 24 25 26 27 28 29 30 31 32 33 34 35 36 37 38 39 40 41 42 43 44 45 46 47 48 49 50
000
ASUS45 KBOU 312207
RWRCO

WEATHER ROUNDUP FOR COLORADO
NATIONAL WEATHER SERVICE DENVER/BOULDER CO
400 PM MDT THU JUL 31 2014

NOTE: "FAIR" INDICATES FEW OR NO CLOUDS BELOW 12000 FEET WITH NO
SIGNIFICANT WEATHER AND/OR OBSTRUCTIONS TO VISIBILITY.

COZ001>005-013-030-031-312300-
...NORTHWEST COLORADO...

CITY           SKY/WX    TMP DP  RH WIND       PRES   REMARKS
CRAIG          PTSUNNY   72  50  45 NW9       30.23F
HAYDEN         MOSUNNY   77  45  31 W7        30.25F
MEEKER         MOSUNNY   77  46  33 E3        30.24F
MOUNT WERNER   NOT AVBL
STEAMBOAT SPGS MOSUNNY   74  48  39 S6        30.27F
WALDEN         MOSUNNY   68  37  32 NE7       30.37F
$$

COZ006>008-011-312300-
...WEST CENTRAL VALLEYS...

CITY           SKY/WX    TMP DP  RH WIND       PRES   REMARKS
GRAND JUNCTION MOSUNNY   85  50  29 NW9       30.10F
MONTROSE       PTSUNNY   83  52  34 N6        30.19F
EAGLE          PTSUNNY   72  54  53 SW12      30.27F
RIFLE          MOSUNNY   82  47  29 W8        30.14F
DELTA          PTSUNNY   91  44  19 W12G20    30.11F
NUCLA          PTSUNNY   84  48  28 N5        30.20F
$$

COZ017>023-064>068-312300-
...SOUTHWEST COLORADO...

CITY           SKY/WX    TMP DP  RH WIND       PRES   REMARKS
DURANGO        CLOUDY    72  51  47 N13       30.25S
CORTEZ         PTSUNNY   84  47  27 NW12G17   30.17F
PAGOSA SPRINGS CLOUDY    61  56  83 E3        30.36S
TELLURIDE      PTSUNNY   72  45  37 W9G16     30.41F
WOLF CREEK PAS NOT AVBL
$$

COZ009-010-012-014-032>034-037-058>063-312300-
...CENTRAL COLORADO...

CITY           SKY/WX    TMP DP  RH WIND       PRES   REMARKS
ASPEN          PTSUNNY   73  46  38 VRB6      30.30F
BUENA VISTA    PTSUNNY   62  52  69 CALM      30.38F
COPPER MTN     CLOUDY    54  43  66 W13       30.64S
BERTHOUD PASS  LGT RAIN  36  36 100 MISG      30.69F
COTTONWOOD PAS PTSUNNY   61  54  77 SE5       30.50F
GUNNISON       PTSUNNY   72  46  40 E5        30.32F
KREMMLING      PTSUNNY   70  46  43 NW3       30.34F
LEADVILLE      TSTM      53  49  86 W7          N/A  FOG
MONARCH PASS   FOG       46  45  93 E18       30.72F VSB<1/4
SALIDA         CLOUDY    62  56  81 E10G17    30.44R VSB 1/2
SUNLIGHT       PTSUNNY   61  48  63 W7        30.56F
WILKERSON PASS FOG       45  45 100 E7        30.63S THUNDER VSB 1/4
$$

COZ069>075-312300-
...SAN LUIS VALLEY/SANGRE DE CRISTO MOUNTAINS...

CITY           SKY/WX    TMP DP  RH WIND       PRES   REMARKS
ALAMOSA        LGT RAIN  59  53  80 W13       30.33R
LA VETA PASS   RAIN      48  46  93 E12       30.52S VSB 1/4
SAGUACHE       PTSUNNY   68  52  56 SE7       30.34R
$$

COZ035-036-038>040-312300-
...NORTHERN COLORADO FRONT RANGE...

CITY           SKY/WX    TMP DP  RH WIND       PRES   REMARKS
DENVER INTL AP PTSUNNY   76  48  37 NW3       30.27F
DMNS CITY PARK   N/A     73  46  39 SW1       30.26F
AURORA         PTSUNNY   71  52  51 N2        30.29F
FRONT RANGE AP NOT AVBL
ERIE MUNI ARPT PTSUNNY   78  45  31 S7        30.25F
BOULDER MUN AP PTSUNNY   75  45  33 E5        30.25F
CENTENNIAL     PTSUNNY   71  49  45 VRB3      30.30F
BROOMFIELD     MOSUNNY   75  45  33 VRB5      30.29F
FORT COLLINS   SUNNY     79  46  31 SE10      30.23F
LONGMONT       SUNNY     82  44  25 S5        30.26S
$$

COZ041-046-047-076>085-087-088-312300-
...PIKES PEAK/PALMER DIVIDE AND SOUTHERN FOOTHILLS...

CITY           SKY/WX    TMP DP  RH WIND       PRES   REMARKS
COLO. SPRINGS  PTSUNNY   65  55  70 VRB3      30.34F
A. F. ACADEMY  MOSUNNY   61  54  78 CALM      30.34F
ELLICOTT       PTSUNNY   66  52  60 SW5       30.32S
FALCON         PTSUNNY   66  52  61 CALM      30.38S
FORT CARSON    PTSUNNY   65  56  71 VRB2      30.32F
LIMON          MOSUNNY   74  50  42 E5        30.27F
MONUMENT HILL  PTSUNNY   63  48  59 NE3       30.36F
TRINIDAD       CLOUDY    69  52  54 NE8       30.29S
$$

COZ042>045-048>051-090-091-312300-
...NORTHEAST COLORADO...

CITY           SKY/WX    TMP DP  RH WIND       PRES   REMARKS
GREELEY ARPT   NOT AVBL
AKRON          PTSUNNY   79  46  31 VRB7      30.21F
BURLINGTON     MOSUNNY   79  46  31 VRB3      30.19F
WRAY             N/A     86  44  22 N3        30.16F
STERLING       SUNNY     84  54  34 W3        30.17F
HOLYOKE        SUNNY     86  45  23 SW3       30.15F
FORT MORGAN    SUNNY     81  42  25 SE7       30.22F
$$

COZ086-089-092>099-312300-
...SOUTHEAST COLORADO...

CITY           SKY/WX    TMP DP  RH WIND       PRES   REMARKS
PUEBLO         PTSUNNY   73  51  46 VRB3      30.25F
LA JUNTA       MOSUNNY   76  52  43 VRB3      30.21F
LAMAR          SUNNY     78  51  38 VRB3      30.18
SPRINGFIELD      N/A     76  52  43 CALM      30.21F
$$



USA.gov is the U.S. government's official web portal to all federal, state and local government web resources and services.